Location: La Fredeussais
(48.1780°N, 1.3980°W)
Time: 11:35:03
(UTC+00:00)

PRISM - Pass Details

Date: 28 October 2021
Orbit: 561 x 584 km, 98.2° (Epoch: 29 November)

Event Time Altitude Azimuth Distance (km) Brightness Sun altitude
Rises 05:21:26 0° 0° (N) 2,801 ? -14.4°
Reaches altitude 10° 05:24:06 10° 343° (NNW) 1,892 ? -14.0°
Enters shadow 05:26:43 18° 303° (WNW) 1,417 ? -13.5°
